Location: *
(46.1866°S, 178.5290°W)
Time: 13:45:41
(UTC+00:00)

AQUARIUS - Pass Details

Date: 19 May 2021
Orbit: 650 x 652 km, 98.0° (Epoch: 21 June)

Event Time Altitude Azimuth Distance (km) Brightness Sun altitude
Exits shadow 06:41:27 16° 173° (S) 1,713 6.2 -22.8°
Maximum altitude 06:45:01 68° 253° (WSW) 716 4.4 -23.5°
Drops below altitude 10° 06:49:31 10° 336° (NNW) 2,069 7.1 -24.2°
Sets 06:51:43 0° 338° (NNW) 2,972 7.9 -24.6°
